Flag for Germany Weather past 2 weeks in Bocholt, North Rhine-Westphalia, Germany

41 °F


Feels Like: 38 °F
Forecast: 37 / 46 °F
Wind: 5 mph from West

Location: Niederrhein

Current Time: Nov 25, 2015 at 5:20:37 PM

Latest Report: Nov 25, 2015 at 4:50 PM

Visibility: 10 mi

Pressure: 29.71 "Hg

Humidity: 87%

Dew point: 37 °F

Location of BocholtLocation

Historic Weather in Bocholt — Graph


Bocholt temperature yesterday

Maximum temperature yesterday: 39 °F (at 7:50 PM)
Minimum temperature yesterday: 36 °F (at 4:50 AM)
Average temperature yesterday: 38 °F

Past Weeks' High & Low Weather Summary

High61 °F (Nov 12, 1:50 PM)100% (Nov 25, 8:50 AM)30.30 "Hg (Nov 25, 8:50 AM)
Low32 °F (Nov 23, 6:50 AM)48% (Nov 13, 1:50 PM)29.39 "Hg (Nov 21, 4:50 AM)
Average49 °F81%29.93 "Hg
* Reported Nov 10 3:20 PM — Nov 25 3:50 PM, Bocholt, Weather by CustomWeather, © 2015

Note: Actual official high and low records may vary slightly from our data, if they occured in-between our weather recording intervals... More about our weather records


Bocholt weather history for previous 24 hours

Time TempWeatherWind HumidityBarometerVisibility
3:50 PM
Wed, Nov 25
43 °FSunny.7 mph87%29.68 "Hg10 mi
3:20 PM43 °FSunny.8 mph87%29.68 "Hg10 mi
2:50 PM45 °FSunny.10 mph81%29.68 "Hg10 mi
2:20 PM45 °FScattered clouds.10 mph81%29.68 "HgN/A
1:50 PM45 °FSunny.9 mph87%29.68 "Hg10 mi
1:20 PM45 °FBroken clouds.13 mph87%29.68 "HgN/A
12:50 PM45 °FScattered clouds.13 mph87%29.68 "HgN/A
12:20 PM45 °FScattered clouds.9 mph87%29.68 "HgN/A
11:50 AM45 °FPartly sunny.12 mph87%29.68 "HgN/A
11:20 AM43 °FPartly sunny.12 mph93%29.68 "HgN/A
10:50 AM43 °FPartly sunny.12 mph93%29.68 "HgN/A
10:20 AM43 °FPartly sunny.9 mph93%29.68 "HgN/A
9:50 AM43 °FPartly sunny.10 mph93%29.68 "HgN/A
9:20 AM43 °FPartly sunny.7 mph93%29.68 "Hg6 mi
8:50 AM41 °FClear.8 mph100%29.68 "Hg4 mi
8:20 AM41 °FFog.8 mph93%29.68 "Hg3 mi
7:50 AM41 °FFog.8 mph93%29.68 "Hg3 mi
7:20 AM43 °FFog.9 mph93%29.68 "Hg3 mi
6:50 AM43 °FFog.8 mph93%29.68 "Hg2 mi
6:20 AM43 °FFog.8 mph93%29.65 "Hg2 mi
5:50 AM43 °FFog.9 mph93%29.68 "Hg2 mi
5:20 AM43 °FFog.10 mph93%29.68 "Hg2 mi
11:50 PM
Tue, Nov 24
39 °FLight rain. Passing clouds.10 mph93%29.74 "Hg6 mi
10:50 PM39 °FLight rain. Low clouds.12 mph93%29.74 "Hg6 mi
10:20 PM39 °FLight rain. Passing clouds.10 mph93%29.74 "Hg6 mi
9:50 PM39 °FLight rain. Passing clouds.12 mph93%29.77 "HgN/A
9:20 PM39 °FLight rain. Passing clouds.12 mph93%29.77 "Hg6 mi
8:50 PM39 °FLight rain. Passing clouds.13 mph93%29.77 "Hg4 mi
8:20 PM39 °FLight rain. Low clouds.13 mph87%29.80 "HgN/A
7:50 PM39 °FLow clouds.12 mph87%29.80 "HgN/A
7:20 PM37 °FLight rain. Passing clouds.12 mph93%29.80 "HgN/A
6:50 PM37 °FLight rain. Fog.12 mph93%29.83 "Hg2 mi
6:20 PM37 °FLight rain. Fog.9 mph93%29.83 "Hg2 mi
5:50 PM37 °FLight rain. Fog.10 mph93%29.83 "Hg2 mi
5:20 PM37 °FLight rain. Partly sunny.10 mph87%29.83 "Hg5 mi
Weather by CustomWeather, © 2015

See weather overviewHow to use our weather pages